Regional Weather Roundup
Issued by NWS

Home | Current Version | Previous Version | Text Only | Print | Product List | Glossary On
Versions: 1 2 3 4 5 6 7 8 9 10 11 12 13 14 15 16 17 18 19 20 21 22 23 24 25 26 27 28 29 30 31 32 33 34 35 36 37 38 39 40 41 42 43 44 45 46 47 48 49 50
000
ASUS43 KTOP 221308
RWRKS

WEATHER ROUNDUP FOR KANSAS
NATIONAL WEATHER SERVICE GOODLAND KS
800 AM CDT FRI AUG 22 2014

NOTE:  "FAIR" INDICATES FEW OR NO CLOUDS BELOW 12,000 FEET WITH NO
SIGNIFICANT WEATHER AND/OR OBSTRUCTIONS TO VISIBILITY.

KSZ001>006-013>018-027>032-041>047-221400-
NORTHWEST KANSAS

CITY           SKY/WX    TMP DP  RH WIND       PRES   REMARKS
GOODLAND       PTCLDY    69  56  62 N18G24    30.05S
HAYS           PTSUNNY   75  64  69 NW7       29.92R
HILL CITY      MOSUNNY   71  67  87 CALM      29.94R
RUSSELL        PTSUNNY   78  66  66 SW10      29.88R
$$

KSZ061>065-074>080-084>089-221400-
SOUTHWEST KANSAS

CITY           SKY/WX    TMP DP  RH WIND       PRES   REMARKS
DODGE CITY     PTSUNNY   75  64  68 S9        29.95R
ELKHART          N/A     66  57  72 S8          N/A
GARDEN CITY    PTCLDY    71  64  78 S7        29.95R
GREAT BEND     PTSUNNY   81  66  61 S9        29.90R
LIBERAL        CLEAR     75  63  64 S10       29.99R
PRATT          SUNNY     77  63  61 S13       29.94R
$$

KSZ066>073-081>083-090>101-221400-
SOUTHEAST KANSAS

CITY           SKY/WX    TMP DP  RH WIND       PRES   REMARKS
CHANUTE        SUNNY     78  69  73 S10       29.96R
COFFEYVILLE    SUNNY     79  70  74 S14       29.96R
HUTCHINSON     SUNNY     79  65  62 S12       29.91S
MEDICINE LODGE   N/A     77  65  66 SE6       29.92R
NEWTON         SUNNY     79  63  57 S14       29.96R
PARSONS        SUNNY     78  69  73 S9        29.97S
WICHITA INTL   MOSUNNY   78  65  63 S14       29.92R
WICHITA JABRA  SUNNY     78  66  66 S12       29.93R
WICHITA MCCONL SUNNY     78  66  66 S13       29.94R
WINFIELD       SUNNY     80  66  62 S14       29.95S
$$

KSZ007>012-019>026-033>040-048>060-102>105-221400-
NORTHEAST KANSAS

CITY           SKY/WX    TMP DP  RH WIND       PRES   REMARKS
CONCORDIA      MOSUNNY   73  72  96 SE3       29.90R
EMPORIA        SUNNY     76  69  79 S17       29.92R
LAWRENCE       MOSUNNY   82  71  69 VRB3      29.92R
MANHATTAN      PTSUNNY   82  69  64 SW16      29.88R
MARYSVILLE     MOSUNNY   73  72  94 SE3       29.90S
OLATHE IND     MOSUNNY   77  71  82 S9        29.94R
OLATHE EXE     MOSUNNY   77  70  79 S10       29.93R
SALINA         MOSUNNY   78  69  73 S12       29.88R
TOPEKA BILLARD PTSUNNY   81  72  74 N3        29.92R
TOPEKA FORBES  PTSUNNY   80  69  69 S14       29.91R
$$


USA.gov is the U.S. government's official web portal to all federal, state and local government web resources and services.